Hourly Data Report for October 22, 2016

All times are specified in Local Standard Time (LST). Add 1 hour to adjust for Daylight Saving Time where and when it is observed.

OTTAWA INTL A
ONTARIO

45°19'00.000" N
75°40'00.000" W
114.90 m
6106001
71628
YOW

Download Data

Hourly Data (October 2016)
Hourly Data Report for October 22, 2016
Temp Definition
°C
Dew Point Temp Definition
°C
Rel Hum Definition
%
Wind Dir Definition
10's deg

Wind Spd Definition
km/h
Visibility Definition
km
Stn Press Definition
kPa
Hmdx Definition


Wind Chill Definition


Weather Definition


TIME
00:00 Legend Double Dagger 5.4 4.5 94 31 26 24.1 99.22     Rain
01:00 Legend Double Dagger 5.1 4.4 95 32 23 16.1 99.12     Rain
02:00 Legend Double Dagger 5.0 4.6 97 30 24 16.1 99.11     Rain
03:00 Legend Double Dagger 4.7 4.4 98 32 26 8.1 98.95     Rain
04:00 Legend Double Dagger 4.6 4.2 97 31 25 12.9 99.07     Rain
05:00 Legend Double Dagger 4.4 4.0 97 33 27 12.9 98.86     Rain
06:00 Legend Double Dagger 4.5 3.8 95 32 27 16.1 98.85     Rain
07:00 Legend Double Dagger 4.4 3.7 95 31 31 4.8 98.86     Moderate Rain,Fog
08:00 Legend Double Dagger 4.4 3.7 95 32 26 6.4 98.81     Rain,Fog
09:00 Legend Double Dagger 4.6 3.9 95 32 25 16.1 98.73     Rain,Fog
10:00 Legend Double Dagger 4.6 3.6 93 32 28 16.1 98.70     Rain,Fog
11:00 Legend Double Dagger 4.9 3.4 90 32 37 19.3 98.61     Rain,Fog
12:00 Legend Double Dagger 5.0 3.3 89 32 34 19.3 98.58     Rain,Fog
13:00 Legend Double Dagger 4.7 3.4 91 31 36 12.9 98.55     Rain
14:00 Legend Double Dagger 4.5 3.6 94 31 35 8.1 98.53     Rain,Fog
15:00 Legend Double Dagger 4.1 3.1 93 30 32 9.7 98.52     Rain,Fog
16:00 Legend Double Dagger 3.7 2.5 92 30 35 16.1 98.54     Rain
17:00 Legend Double Dagger 3.6 2.1 90 31 31 9.7 98.55     Moderate Rain,Fog
18:00 Legend Double Dagger 3.5 2.2 91 31 31 16.1 98.55     Rain
19:00 Legend Double Dagger 3.3 1.8 90 30 35 16.1 98.54     Rain
20:00 Legend Double Dagger 3.4 1.6 88 30 36 16.1 98.54     Rain
21:00 Legend Double Dagger 3.9 1.3 83 30 31 24.1 98.57     Rain
22:00 Legend Double Dagger 4.8 0.8 75 29 36 24.1 98.54     Cloudy
23:00 Legend Double Dagger 4.7 0.1 72 29 29 24.1 98.55     LegendNANA

Notes on Data Quality.

Legend

  • E = Estimated
  • M = Missing
  • NA = Not Available
  • ‡ = Partner data that is not subject to review by the National Climate Archives
Date modified: